Weather History for Redding, CA

Change the Weather History Date:

Friday, May 3, 2013

  Actual Average Record
Temperature  
Mean Temperature 73 °F -  
Max Temperature 95 °F 76 °F 95 °F (1992)
Min Temperature 50 °F 50 °F 40 °F (1996)
Degree Days  
Heating Degree Days 0    
Cooling Degree Days 8    
Growing Degree Days 22 (Base 50)    
Moisture  
Dew Point 35 °F    
Average Humidity 40    
Maximum Humidity 71    
Minimum Humidity 9    
Precipitation  
Precipitation 0.00 in 0.06 in 0.60 in (2003)
Month to date precipitation 0.00 0.19  
Year to date precipitation 6.86 18.51  
Since 1 July precipitation 26.02 32.27  
Sea Level Pressure  
Sea Level Pressure 29.93 in    
Wind  
Wind Speed 5 mph (North)    
Max Wind Speed 23 mph    
Max Gust Speed 28 mph    
Visibility 10 miles    
Events      
T = Trace of Precipitation, MM = Missing Value Source: NWS Daily Summary

Daily Weather History Graph

Daily Weather History Graph

Search for Another Location

Airport:

Trip Planner

Search our weather history database for the weather conditions in past years. The results will help you decide how hot, cold, wet, or windy it might be!

Date:

Astronomy

May. 03, 2013 Rise Set
Actual Time 6:05 AM PDT 8:07 PM PDT
Civil Twilight 5:35 AM PDT 8:37 PM PDT
Nautical Twilight 4:59 AM PDT 9:13 PM PDT
Astronomical Twilight 4:19 AM PDT 9:53 PM PDT
Moon 2:34 AM PDT (5/3) 2:06 PM PDT (5/3)
Length of Visible Light 15h 01m
Length of Day
14h 02m
Waning Crescent, 36% of the Moon is Illuminated
May 3
Waning Crescent
May 9
New
May 17
First Quarter
May 24
Full
May 31
Last Quarter

Hourly Weather History & Observations

Time (PDT) Temp. Dew Point Humidity Pressure Visibility Wind Dir Wind Speed Gust Speed Precip Events Conditions
12:53 AM 57.9 °F 43.0 °F 58% 30.06 in 10.0 mi Calm Calm - N/A   Clear
1:53 AM 57.0 °F 39.9 °F 53% 30.05 in 10.0 mi Calm Calm - N/A   Clear
2:53 AM 54.0 °F 43.0 °F 66% 30.05 in 10.0 mi Calm Calm - N/A   Clear
3:53 AM 52.0 °F 43.0 °F 71% 30.04 in 10.0 mi Calm Calm - N/A   Clear
4:53 AM 54.0 °F 41.0 °F 62% 30.04 in 10.0 mi NNW 4.6 mph - N/A   Clear
5:53 AM 52.0 °F 39.9 °F 63% 30.04 in 10.0 mi North 4.6 mph - N/A   Clear
6:53 AM 55.0 °F 41.0 °F 59% 30.04 in 9.0 mi NNW 5.8 mph - N/A   Clear
7:53 AM 62.1 °F 44.1 °F 52% 30.03 in 10.0 mi Calm Calm - N/A   Clear
8:53 AM 72.0 °F 39.9 °F 31% 30.01 in 10.0 mi North 6.9 mph - N/A   Clear
9:53 AM 80.1 °F 35.1 °F 20% 29.99 in 10.0 mi North 9.2 mph 19.6 mph N/A   Clear
10:53 AM 82.9 °F 32.0 °F 16% 29.98 in 10.0 mi North 12.7 mph 24.2 mph N/A   Clear
11:53 AM 86.0 °F 34.0 °F 16% 29.96 in 10.0 mi NW 11.5 mph 17.3 mph N/A   Clear
12:53 PM 90.0 °F 25.0 °F 10% 29.93 in 10.0 mi North 18.4 mph 25.3 mph N/A   Clear
1:53 PM 91.9 °F 26.1 °F 9% 29.90 in 10.0 mi North 18.4 mph 23.0 mph N/A   Clear
2:53 PM 93.0 °F 30.0 °F 11% 29.88 in 10.0 mi NW 6.9 mph 25.3 mph N/A   Clear
3:53 PM 93.0 °F 28.9 °F 10% 29.85 in 10.0 mi NW 9.2 mph - N/A   Clear
4:53 PM 93.9 °F 28.0 °F 10% 29.83 in 10.0 mi NNW 4.6 mph - N/A   Clear
5:53 PM 93.9 °F 26.1 °F 9% 29.81 in 10.0 mi North 11.5 mph 16.1 mph N/A   Clear
6:53 PM 91.9 °F 28.9 °F 11% 29.79 in 10.0 mi North 8.1 mph - N/A   Clear
7:53 PM 87.1 °F 32.0 °F 14% 29.79 in 10.0 mi North 6.9 mph - N/A   Clear
8:53 PM 79.0 °F 34.0 °F 20% 29.81 in 10.0 mi North 6.9 mph - N/A   Clear
9:53 PM 77.0 °F 30.9 °F 19% 29.83 in 10.0 mi North 6.9 mph - N/A   Clear
10:53 PM 70.0 °F 36.0 °F 29% 29.83 in 10.0 mi NNE 8.1 mph - N/A   Clear
11:53 PM 75.0 °F 30.9 °F 20% 29.84 in 10.0 mi North 6.9 mph - N/A   Clear